User: anonymous   Login
Location: Fours
(44.3167°N, 6.7000°E)
Time: 07:35:54
(UTC+00:00)
Language:

Cosmos 2227 - Orbit

View from above orbital plane
View from above orbital plane
View from above satellite
View from above satellite

Ground track
Ground track

The orbit data is extracted from the following two-line orbital elements,

1 22284U 92093A   22277.07644931  .00000236  00000-0  15084-3 0  9997
2 22284  70.9791 139.0387 0017100 130.8953 229.3653 14.13386469536023
Epoch (UTC): 04 October 2022 01:50:05
Eccentricity: 0.0017100
inclination: 70.9791°
perigee height: 835 km
apogee height: 860 km
right ascension of ascending node: 139.0387°
argument of perigee: 130.8953°
revolutions per day: 14.13386469
mean anomaly at epoch: 229.3653°
orbit number at epoch: 53602

The dashed part of the orbit path shows where the satellite is in the earth's shadow,  

DLR